Hourly Data Report for September 25, 2017

All times are specified in Local Standard Time (LST). Add 1 hour to adjust for Daylight Saving Time where and when it is observed.

KITCHENER/WATERLOO
ONTARIO

43°27'39.000" N
80°22'43.000" W
321.60 m
6144239
71368
YKF

Download Data

Hourly Data (September 2017)
Hourly Data Report for September 25, 2017
Temp Definition
°C
Dew Point Temp Definition
°C
Rel Hum Definition
%
Wind Dir Definition
10's deg

Wind Spd Definition
km/h
Visibility Definition
km
Stn Press Definition
kPa
Hmdx Definition


Wind Chill Definition


Weather Definition


TIME
00:00 Legend Double Dagger 18.0 17.7 98   0 3.2 98.18     Fog
01:00 Legend Double Dagger 17.8 17.6 99   0 4.0 98.17     Fog
02:00 Legend Double Dagger 16.5 16.3 99 35 5 2.0 98.15     Fog
03:00 Legend Double Dagger 16.9 16.7 99 35 4 0.4 98.13     Fog
04:00 Legend Double Dagger 16.5 16.3 99   0 0.6 98.13     Fog
05:00 Legend Double Dagger 15.6 15.5 99 34 4 0.2 98.13     Fog
06:00 Legend Double Dagger 14.7 14.6 99 36 4 0.2 98.15     Fog
07:00 Legend Double Dagger 15.2 15.1 99   0 1.0 98.18     Fog
08:00 Legend Double Dagger 19.1 18.9 99 LegendMM 4 8.1 98.21     Fog
09:00 Legend Double Dagger 23.9 19.0 74 13 8 16.1 98.22 31   LegendNANA
10:00 Legend Double Dagger 26.1 19.1 65 15 9 16.1 98.20 33   LegendNANA
11:00 Legend Double Dagger 28.9 19.1 55 15 22 16.1 98.17 36   LegendNANA
12:00 Legend Double Dagger 30.1 18.2 48 17 21 16.1 98.14 36   LegendNANA
13:00 Legend Double Dagger 30.7 19.0 49 14 13 9.7 98.06 37   Haze
14:00 Legend Double Dagger 31.0 18.0 45 14 11 9.7 98.00 37   Haze
15:00 Legend Double Dagger 31.0 18.0 45 11 9 16.1 97.94 37   LegendNANA
16:00 Legend Double Dagger 29.3 16.4 45 13 17 16.1 97.91 34   LegendNANA
17:00 Legend Double Dagger 29.5 17.4 48 16 11 16.1 97.90 35   LegendNANA
18:00 Legend Double Dagger 25.0 18.6 67 11 11 16.1 97.90 31   LegendNANA
19:00 Legend Double Dagger 22.8 19.0 79 11 9 16.1 97.88 30   LegendNANA
20:00 Legend Double Dagger 20.4 18.6 89 9 8 16.1 97.90 27   LegendNANA
21:00 Legend Double Dagger 19.5 17.8 90 9 4 12.9 97.90     LegendNANA
22:00 Legend Double Dagger 18.7 17.4 92 8 4 11.3 97.90     LegendNANA
23:00 Legend Double Dagger 17.9 17.3 96 36 4 6.4 97.89     Fog

Notes on Data Quality.

Legend

  • E = Estimated
  • M = Missing
  • NA = Not Available
  • ‡ = Partner data that is not subject to review by the National Climate Archives
Date modified: